Hlavní strana
METAR-TAF:

METAR-TAF

Letiště :

Hilton Head Airport

Hilton Head Island, Jižní Karolína, Spojené státy americké

zeměpisná šířka: 32-13N, zeměpisná délka: 080-42W, výška: 6 m

Aktuální stav počasí

Zpráva byla vytvořena před 11 minutami, v 02:15 UTC
Severoseverovýchodní vítr 6 kt
Teplota 13°C
Vlhkost vzduchu 88%
Tlak 1026 hPa
Viditelnost: 16.1 km
Jasno

METAR: KHXD 040215Z AUTO 02006KT 10SM CLR 13/11 A3029 RMK AO2

Čas: 21:26 (02:26 UTC)


TAF: chybějící

Stav a předpovědi počasí z více než 4 000 letišť (zprávy METAR a TAF).

Červené a žluté tečky na mapě představují dostupné meteorologické stanice.

Když kurzor umístíte na tečku, zobrazí se název stanice.

Pak kliknutím zobrazíte stav a předpověď počasí.

Chcete-li změnit mapu, kliknutím na zelené tlačítko se znaménkem +mapu přiblížíte, kliknutím na zelené tlačítko se znaménkem – mapu oddálíte a kliknutím na zelené šipky přejdete na sousední mapy.


METAR-TAF: